Preview of NWS' New Version of Forecast
This preview is not operational and should not be used for support decisions.
Latest weather observations around

Santa Ana, John Wayne Airport-Orange County Airport (KSNA)

Using International System of Units (Switch to English Units)
Date/ Time (PDT) Wind (kph) Vis. (km) Weather Sky Cond. Temp (°C) Rel. Humidity Wind Chill (°C) Heat Index (°C) Pressure Precip. (cm)
Air Dwpt 6 hour Altimeter (hPa) Sea level (hPa) 1 hr 3 hr 6 hr
Max Min
Sep 23 12:53 SSW 26 16.09 Mostly Clear FEW022 FEW070 26 17     58%   26 1013.2 1012.9      
Sep 23 11:53 SSW 17 16.09 Mostly Clear FEW022 26 17     60%   26 1013.9 1013.8      
Sep 23 11:00 8 16.09 Partly Cloudy SCT020 24 17     62%   25 1014.6        
Sep 23 10:53 11 16.09 Mostly Cloudy BKN020 25 17     62%   25 1014.6 1014.4      
Sep 23 09:53 SSW 11 16.09 Mostly Cloudy BKN017 23 17     68%   23 1014.6 1014.4      
Sep 23 08:53 8 16.09 Cloudy OVC015 22 17     73%   22 1014.2 1013.9      
Sep 23 08:03 Calm 16.09 Mostly Cloudy BKN015 22 17     73%   22 1013.9        
Sep 23 07:53 Calm 16.09 Mostly Cloudy BKN014 22 17     73%   22 1013.6 1013.5      
Sep 23 06:53 Calm 11.27 Mostly Cloudy BKN012 21 17     76%     1013.2 1012.9      
Sep 23 06:50 Calm 11.27 Mostly Cloudy BKN012 21 17     78%     1013.2        
Sep 23 05:53 ESE 8 12.87 Mostly Cloudy BKN009 20 17     81%     1012.2 1012.2      
Sep 23 05:50 ESE 9 16.09 Partly Cloudy SCT009 20 17     83%     1012.2        
Sep 23 05:31 ESE 9 16.09 Partly Cloudy SCT010 21 17     81%     1012.2        
Sep 23 05:07 SSE 8 16.09 Cloudy OVC010 21 17     81%     1012.2        
Sep 23 04:53 Calm 16.09 Cloudy OVC008 21 17     81%     1012.2 1012.1      
Sep 23 04:31 S 5 16.09 Mostly Cloudy BKN007 BKN011 21 17     81%     1012.2        
Sep 23 04:19 Calm 16.09 Mostly Cloudy SCT007 BKN011 21 18     81%     1012.2        
Sep 23 03:53 Calm 16.09 Clear CLR 21 18     81%     1012.2 1011.9      
Sep 23 02:53 Calm 16.09 Clear CLR 21 18     81%     1011.9 1011.7      
Sep 23 01:53 Calm 16.09 Clear CLR 22 17     76%   22 1011.9 1011.7      
Sep 23 00:53 Calm 16.09 Clear CLR 22 17     76%   22 1012.2 1011.9      
Sep 22 23:53 Calm 16.09 Clear CLR 23 18     73%   23 1012.2 1011.9      
Sep 22 22:53 Calm 16.09 Clear CLR 23 17     71%   23 1011.9 1011.8      
Sep 22 21:53 Calm 16.09 Clear CLR 23 18     71%   24 1012.2 1012.1      
Sep 22 20:53 S 5 16.09 Mostly Clear FEW014 23 18     71%   24 1011.9 1011.8      
Sep 22 19:53 SSW 9 16.09 Mostly Clear FEW014 23 18     71%   24 1011.5 1011.3      
Sep 22 18:53 SW 11 16.09 Partly Cloudy FEW014 FEW160 SCT250 24 19     71%   25 1011.2 1010.9      
Sep 22 17:53 SW 13 16.09 Clear   26 19     67%   26 1010.8 1010.5      
Sep 22 16:53 SSW 17 16.09 Mostly Clear FEW250 28 17     51%   28 1010.5 1010.5      
Sep 22 15:53 SSW 13 16.09 Mostly Clear FEW250 28 17     51%   29 1010.2 1010.1      
Sep 22 14:53 SW 11 16.09 Partly Cloudy FEW180 SCT250 31 17     45%   31 1010.5 1010.3      
Sep 22 13:53 8 16.09 Mostly Cloudy SCT210 BKN250 31 17     45%   31 1010.8 1010.7      
Sep 22 12:53 9 16.09 Mostly Cloudy SCT200 BKN250 29 18     50%   30 1011.5 1011.3      
Sep 22 11:53 NNW 8 16.09 Mostly Cloudy FEW200 BKN250 29 17     48%   29 1011.9 1011.7      
Sep 22 10:53 Calm 16.09 Mostly Cloudy FEW200 BKN250 26 17     56%   26 1012.5 1012.3      
Sep 22 09:53 Calm 16.09 Mostly Cloudy FEW200 BKN250 24 17     64%   25 1012.5 1012.5      
Sep 22 08:53 Calm 16.09 Mostly Cloudy BKN250 23 17     71%   23 1012.2 1012      
Sep 22 07:53 Calm 16.09 Mostly Cloudy BKN250 21 17     76%     1011.9 1011.5      
Sep 22 06:53 Calm 16.09 Partly Cloudy FEW012 SCT250 19 16     81%     1011.2 1010.9      
Sep 22 05:53 SSW 5 16.09 Partly Cloudy SCT250 19 16     81%     1010.2 1010.1      
Sep 22 04:53 Calm 16.09 Clear CLR 20 17     81%     1009.8 1009.6      
Sep 22 03:53 Calm 16.09 Clear CLR 21 17     78%     1009.8 1009.5      
Sep 22 02:53 S 8 16.09 Clear CLR 21 17     81%     1010.2 1010.1      
Sep 22 01:53 Calm 16.09 Clear CLR 22 18     79%   22 1010.5 1010.4      
Sep 22 00:53 Calm 16.09 Clear CLR 22 18     79%   23 1010.8 1010.5      
Sep 22 00:22 Calm 16.09 Mostly Clear FEW007 22 18     79%   23 1010.8        
Sep 21 23:53 Calm 16.09 Clear CLR 22 18     79%   23 1010.8 1010.7      
Sep 21 22:53 SSW 9 16.09 Mostly Cloudy FEW012 BKN250 22 18     81%   22 1011.2 1010.9      
Sep 21 21:53 S 9 16.09 Mostly Clear FEW250 23 18     73%   23 1010.8 1010.8      
Sep 21 20:53 SW 9 16.09 Clear CLR 23 18     74%   24 1010.5 1010.4      
Sep 21 19:53 S 11 16.09 Clear CLR 24 17     64%   25 1009.8 1009.6      
Sep 21 18:53 SSW 9 16.09 Mostly Clear FEW250 26 17     60%   26 1009.2 1008.9      
Sep 21 17:53 W 5 16.09 Mostly Clear FEW250 27 17     54%   27 1008.8 1008.6      
Sep 21 16:53 WSW 9 16.09 Clear CLR 27 16     51%   27 1008.8 1008.6      
Sep 21 15:53 WSW 13 16.09 Clear CLR 27 16     51%   28 1009.2 1008.9      
Sep 21 14:53 SW 17 16.09 Clear CLR 27 17     53%   28 1009.5 1009.4      
Sep 21 13:53 11 16.09 Clear CLR 27 17     54%   28 1010.2 1009.8      
Sep 21 12:53 SW 13 16.09 Clear CLR 27 17     54%   28 1010.8 1010.6      
Sep 21 11:53 SSW 15 16.09 Clear CLR 27 17     56%   27 1011.5 1011.5      
Sep 21 10:53 Calm 16.09 Mostly Clear FEW017 26 16     56%   26 1012.2 1012.1      
Sep 21 09:53 WNW 5 16.09 Mostly Clear FEW017 23 17     66%   23 1012.9 1012.6      
Sep 21 08:53 Calm 16.09 Clear CLR 21 16     73%     1012.9 1012.6      
Sep 21 07:53 5 11.27 Clear CLR 20 16     78%     1012.5 1012.4      
Sep 21 06:53 ENE 9 14.48 Clear CLR 19 15     78%     1012.2 1012      
Sep 21 05:53 NNE 5 12.87 Clear CLR 18 14     78%     1011.9 1011.5      
Sep 21 04:53 Calm 16.09 Clear CLR 19 14     75%     1011.5 1011.3      
Sep 21 03:53 Calm 16.09 Clear CLR 19 15     76%     1011.5 1011.2      
Sep 21 02:53 Calm 16.09 Clear CLR 20 16     76%     1011.9 1011.5      
Sep 21 01:53 Calm 16.09 Clear CLR 20 16     78%     1011.9 1011.6      
Sep 21 00:53 Calm 16.09 Clear CLR 21 16     75%     1011.9 1011.7      
Sep 20 23:53 Calm 16.09 Clear CLR 21 17     76%     1011.5 1011.5      
Sep 20 22:53 Calm 16.09 Clear CLR 21 16     73%     1011.5 1011.5      
Sep 20 21:53 Calm 16.09 Clear CLR 22 17     73%   22 1011.5 1011.3      
Sep 20 20:53 WSW 8 16.09 Clear CLR 22 16     70%   22 1010.8 1010.7      
Sep 20 19:53 WSW 5 16.09 Clear CLR 23 16     64%   23 1010.2 1010.1      
Sep 20 18:53 SSW 9 16.09 Clear CLR 23 16     66%   23 1009.8 1009.7      
Sep 20 17:53 SW 8 16.09 Mostly Clear FEW018 24 15     57%   24 1009.8 1009.6      
Sep 20 16:53 SW 13 16.09 Clear   25 16     56%   25 1010.5 1010.2      
Sep 20 15:53 WSW 17 16.09 Clear CLR 25 15     54%   25 1010.5 1010.4      
Sep 20 14:53 SW 17 16.09 Clear   26 15     50%   26 1010.8 1010.6      
Sep 20 13:53 SSW 18 16.09 Mostly Clear FEW029 26 15     50%   26 1011.2 1011.1      
Sep 20 12:53 W 8 16.09 Mostly Clear FEW028 25 15     54%   25 1011.5 1011.3      
Sep 20 11:53 SSW 18 16.09 Mostly Clear FEW028 25 15     54%   25 1011.9 1011.7      
Sep 20 10:53 8 16.09 Mostly Clear FEW027 26 13     47%   25 1012.2 1012      
Sep 20 08:53 Calm 16.09 Mostly Clear FEW026 22 14     59%   22 1012.5 1012.4      
May 14 17:53 W 13 16.09 Clear CLR 18 11     63%     1013.9 1013.9      
May 14 15:53 SW 15 16.09 Mostly Clear FEW029 19 11     57%     1014.6 1014.4      
May 14 08:53 5 16.09 Partly Cloudy SCT017 17 11     67%     1015.6 1015.5      
May 13 20:53 W 11 16.09 Clear CLR 16 12     78%     1015.2 1015.2      
May 13 14:53 SW 17 16.09 Partly Cloudy SCT044 21 10     51%     1015.2 1015.3      
May 12 18:53 S 17 16.09 Mostly Cloudy FEW043 BKN050 17 11     70%     1014.6 1014.5      
May 12 04:53 SE 5 12.87 Light Rain SCT013 BKN018 OVC025 14 13     93%     1012.9 1012.8 0   0
May 11 23:28 8 16.09 Cloudy BKN010 BKN015 OVC027 15 14     93%     1012.5        
May 11 21:53 SE 13 12.87 Cloudy SCT013 BKN018 OVC036 16 13     86%     1011.5 1011.4      
May 11 18:53 SE 15 14.48 Cloudy FEW011 SCT022 OVC026 16 13     83%     1009.8 1009.9      
May 11 17:53 SSE 21 16.09 Cloudy SCT020 BKN024 OVC031 16 12     78%     1010.2 1009.9      
May 11 09:53 SSE 26 14.48 Cloudy SCT027 OVC030 18 11     63%     1011.5 1011.5      
Jun 11 23:53 W 11 16.09 Cloudy OVC037 17 12     70%     1015.6 1015.4      
Jun 11 19:53 S 13 16.09 Partly Cloudy FEW023 SCT028 SCT035 18 12     70%     1013.6 1013.6      
Jun 11 14:53 SSW 30 16.09 Partly Cloudy FEW033 SCT038 22 12     53%   21 1013.2 1012.9      
Jun 11 12:53 SSE 17 16.09 Mostly Cloudy SCT028 BKN036 21 12     57%     1013.2 1013.2      
Jun 11 07:53 ESE 13 16.09 Cloudy BKN022 BKN030 OVC035 17 13     80%     1012.2 1012.3      
Jun 08 14:53 W 15 14.48 Mostly Clear FEW027 FEW250 22 14     61%   22 1015.2 1015      
Jun 07 22:53 5 11.27 Cloudy FEW013 OVC015 17 14     81%     1015.2 1015.2      
Jun 07 19:53 SSW 15 12.87 Cloudy SCT013 OVC016 17 14     81%     1014.6 1014.4      
Jun 07 08:59 SW 8 6.44 Fog/Mist SCT007 BKN010 OVC014 17 16     93%     1014.2        
Jun 06 12:53 SW 11 16.09 Cloudy OVC013 19 15     78%     1014.2 1014.3      
Jun 06 00:53 S 8 16.09 Cloudy OVC012 17 14     84%     1012.5 1012.2